Location: Shepherdstown, WV
(39.4326°N, 77.8042°W)
Time: 06:16:19
(UTC-04:00)

Vanguard 1 - Pass Details

Date: 05 August 2021
Orbit: 652 x 3831 km, 34.3° (Epoch: 24 September)

Event Time Altitude Azimuth Distance (km) Brightness Sun altitude
Rises 10:16:24 0° 234° (SW) 3,032 12.3 44.8°
Reaches altitude 10° 10:18:56 10° 223° (SW) 2,050 11.6 45.3°
Maximum altitude 10:22:49 30° 160° (SSE) 1,192 11.4 46.0°
Drops below altitude 10° 10:27:13 10° 99° (E) 2,340 13.0 46.8°
Sets 10:30:19 0° 89° (E) 3,555 13.6 47.3°
